#�ϑ�����,���ϕ���,���ϕ���,�ő啗��,�ő啗����������,�ő�u�ԕ���,�ő�u�ԕ�����������
#(�N����),(m/s)   ,(16����),(m/s)   ,(16����)        ,(m/s)       ,(16����)            
2012/8/23 0:01,2.4,3,2.4,3,4.7,3
2012/8/23 0:02,2.3,3,2.4,3,3.5,4
2012/8/23 0:03,2.2,3,2.3,3,3.1,3
2012/8/23 0:04,2.1,3,2.1,3,2.9,3
2012/8/23 0:05,2,3,2.1,3,3.7,3
2012/8/23 0:06,2.1,3,2.1,3,3.3,3
2012/8/23 0:07,2.2,3,2.2,3,3.2,3
2012/8/23 0:08,2.1,3,2.2,3,4.2,2
2012/8/23 0:09,2.2,2,2.2,3,3.5,3
2012/8/23 5:00,1.6,2,1.6,2,2.4,2
2012/8/23 5:01,2.2,2,2.4,2,4.2,3
2012/8/23 5:02,1.9,2,2.2,2,2.9,3
2012/8/23 5:03,2.2,2,2.2,2,3.9,3
2012/8/23 5:04,2.3,3,2.4,2,3.9,3
2012/8/23 5:05,2.3,3,2.3,2,3.1,4
2012/8/23 5:06,2.2,3,2.3,2,3,3
2012/8/23 5:07,2.2,3,2.2,2,3.1,2
2012/8/23 5:08,2.3,3,2.3,2,4.4,3
2012/8/23 5:09,2.2,2,2.2,2,3.9,2
2012/8/23 5:10,2.2,3,2.2,2,3.9,3
2012/8/23 5:11,2.3,3,2.3,2,3.8,4
2012/8/23 5:12,2.4,3,2.4,2,3,3
2012/8/23 5:13,2.3,3,2.4,2,2.7,4
2012/8/23 5:14,2.3,3,2.3,3,2.5,3
2012/8/23 5:15,2.2,3,2.3,3,2.5,3
2012/8/23 5:16,2.3,3,2.3,3,3.7,3
2012/8/23 5:17,2.3,3,2.3,3,4.1,3
2012/8/23 5:18,2.3,3,2.3,3,4.1,3
2012/8/23 5:19,2.3,3,2.3,3,3.7,3
2012/8/23 5:20,2.3,3,2.4,3,3.7,3
2012/8/23 5:21,2.3,3,2.3,3,3.2,3
2012/8/23 5:22,2.2,3,2.3,3,2.6,4
2012/8/23 5:23,2.2,3,2.2,3,3.5,3
2012/8/23 5:24,2.3,3,2.3,3,3,3
2012/8/23 5:25,2.5,3,2.5,3,5.2,4
2012/8/23 5:26,2.5,3,2.5,3,4.9,4
2012/8/23 5:27,2.5,3,2.5,3,2.7,2
2012/8/23 5:28,2.5,3,2.5,3,3.9,4
2012/8/23 5:29,2.4,3,2.5,3,3,1
2012/8/23 5:30,2.4,3,2.4,3,3.6,3
2012/8/23 5:31,2.5,3,2.5,3,4.4,3
2012/8/23 5:32,2.5,3,2.5,3,3.8,2
2012/8/23 5:33,2.6,3,2.6,3,4.5,3
2012/8/23 5:34,2.7,3,2.7,3,4.1,3
2012/8/23 5:35,2.6,3,2.7,3,3.7,3
2012/8/23 5:36,2.6,3,2.6,3,3.3,3
2012/8/23 5:37,2.6,3,2.6,3,3.9,3
2012/8/23 5:43,3.1,3,3.1,3,3.1,3
2012/8/23 5:44,1.9,3,2.8,3,3.2,3
2012/8/23 5:45,2.2,3,2.2,3,3.6,3
2012/8/23 5:46,2.2,3,2.2,3,3.6,3
2012/8/23 5:47,2.4,3,2.4,3,4.3,3
2012/8/23 5:48,2.5,3,2.5,3,3.9,3
2012/8/23 5:49,2.4,3,2.5,3,3.7,2
2012/8/23 5:50,2.4,3,2.4,3,3.1,3
2012/8/23 5:51,2.4,3,2.4,3,3.5,3
2012/8/23 5:52,2.4,3,2.4,3,2.9,3
2012/8/23 5:53,2.2,3,2.3,3,1.9,2
2012/8/23 5:54,2.2,3,2.2,3,2.7,2
2012/8/23 5:55,2.2,3,2.2,3,2.7,3
2012/8/23 6:52,0.4,3,0.4,3,0.5,4
2012/8/23 6:53,1.2,2,1.3,2,2.1,2
2012/8/23 6:54,1.5,3,1.5,3,2.5,3
2012/8/23 6:55,1.6,3,1.6,3,2.5,3
2012/8/23 6:56,1.7,3,1.7,3,2.7,4
2012/8/23 6:57,1.8,3,1.8,3,3.2,4
2012/8/23 6:58,1.9,3,1.9,3,3,3
2012/8/23 6:59,1.9,3,2,3,3.2,3
2012/8/23 7:00,2,3,2,3,3.6,4
2012/8/23 7:01,2.1,3,2.1,3,3.7,4
2012/8/23 7:02,2.2,3,2.2,3,4.2,5
2012/8/23 7:03,2.4,4,2.4,3,4.1,5
2012/8/23 7:04,2.4,4,2.5,4,3.8,5
2012/8/23 7:05,2.5,4,2.5,4,3.9,5
2012/8/23 7:06,2.5,4,2.6,4,3.1,4
2012/8/23 7:07,2.5,4,2.5,4,3.2,3
2012/8/23 7:08,2.6,4,2.6,4,4.4,3
2012/8/23 7:09,2.6,4,2.6,4,3.5,3
2012/8/23 7:10,2.5,4,2.6,4,2.6,3
2012/8/23 7:11,2.5,4,2.5,4,3.1,4
2012/8/23 7:12,2.4,4,2.5,4,3.1,4
2012/8/23 7:13,2.3,4,2.4,4,3.6,3
2012/8/23 7:14,2.2,4,2.3,4,2.7,3
2012/8/23 7:15,2.2,4,2.2,4,2.4,4
2012/8/23 7:16,2.2,4,2.2,4,3.2,5
2012/8/23 7:17,2.2,4,2.2,4,3,5
2012/8/23 7:18,2.1,4,2.2,4,2.5,4
2012/8/23 7:19,2.2,4,2.2,4,5.7,3
2012/8/23 7:20,2.4,4,2.4,4,5.8,4
2012/8/23 8:36,1.9,5,1.9,5,2.6,6
2012/8/23 8:37,2.2,6,2.3,6,3.1,6
2012/8/23 8:38,2.4,6,2.4,6,4.1,6
2012/8/23 8:39,2.4,6,2.5,6,3.9,6
2012/8/23 8:40,2.5,6,2.5,6,3.8,5
2012/8/23 8:41,2.4,5,2.5,6,2.6,4
2012/8/23 8:42,2.4,5,2.4,6,4.2,5
2012/8/23 8:43,2.6,5,2.6,5,5.1,5
2012/8/23 8:44,2.6,5,2.6,5,3.7,6
2012/8/23 8:45,2.6,5,2.6,5,4.1,4
2012/8/23 8:46,2.6,5,2.6,5,3.7,4
2012/8/23 8:47,2.6,5,2.6,5,4.2,3
2012/8/23 8:48,2.6,5,2.7,5,3.9,3
2012/8/23 8:49,2.6,4,2.6,5,3,3
2012/8/23 8:50,2.5,4,2.6,5,3.5,3
2012/8/23 8:51,2.5,4,2.5,5,3,3
2012/8/23 8:52,2.4,4,2.5,5,2.4,3
2012/8/23 8:53,2.2,4,2.4,5,2.2,4
2012/8/23 8:54,2.2,4,2.2,5,3.7,5
2012/8/23 8:55,2.1,4,2.2,5,3.1,4
2012/8/23 8:56,2.1,4,2.1,5,4.3,3
2012/8/23 8:57,2.2,4,2.2,5,4.2,3
2012/8/23 8:58,2.2,4,2.2,5,4.3,2
2012/8/23 8:59,2.2,4,2.2,4,3.1,4
2012/8/23 9:00,2.2,4,2.3,4,2.9,5
2012/8/23 9:01,2.3,4,2.3,4,3.8,5
2012/8/23 9:02,2.4,4,2.4,4,3.5,4
2012/8/23 9:03,2.5,4,2.5,4,3.6,5
2012/8/23 9:04,2.4,4,2.5,4,2,6
2012/8/23 9:05,2.2,5,2.3,4,1.8,11
2012/8/23 9:06,2.1,5,2.2,4,2.1,8
2012/8/23 9:07,2,5,2.1,4,3.1,8
2012/8/23 9:08,1.8,6,2,4,3,5
2012/8/23 9:09,1.8,6,1.8,4,3.3,5
2012/8/23 9:10,1.8,6,1.8,4,2.4,8
2012/8/23 9:11,1.8,6,1.8,4,4.3,5
2012/8/23 9:12,1.9,6,1.9,4,5.2,4
2012/8/23 9:13,1.9,6,1.9,4,4.9,5
2012/8/23 9:14,2,5,2,4,3.1,6
2012/8/23 9:15,2.1,5,2.1,5,3.5,3
2012/8/23 9:16,2.1,5,2.1,5,3.1,6
2012/8/23 9:17,2.1,5,2.1,5,2.6,6
2012/8/23 9:18,2,5,2.1,5,1.6,8
2012/8/23 9:19,2,5,2,5,3.2,5
2012/8/23 9:20,2.2,5,2.2,5,4.3,5
2012/8/23 9:21,2.3,5,2.3,5,4.9,5
2012/8/23 9:22,2.2,5,2.3,5,3.8,6
2012/8/23 9:23,1.9,5,2.1,5,2.5,5
2012/8/23 9:24,2,5,2,5,3.1,9
2012/8/23 10:12,2.7,7,2.7,7,3.3,6
2012/8/23 10:13,1.7,7,2.7,7,3.3,6
2012/8/23 10:14,2.6,6,2.6,7,5.2,6
2012/8/23 10:15,2.6,7,2.7,7,3.8,7
2012/8/23 10:16,2,7,2.6,7,3.1,8
2012/8/23 10:17,1.9,7,2,7,2.2,6
2012/8/23 10:18,1.9,7,1.9,7,2.7,6
2012/8/23 10:19,1.8,6,1.9,7,2.6,5
2012/8/23 10:20,1.7,7,1.8,7,2.1,8
2012/8/23 10:21,1.8,7,1.8,7,3.7,8
2012/8/23 10:22,1.9,7,1.9,7,6.4,8
2012/8/23 10:23,2,7,2,6,6.2,8
2012/8/23 10:24,2,7,2,6,5.5,8
2012/8/23 10:25,2,7,2.1,7,5.1,7
2012/8/23 10:26,2.3,7,2.3,7,6,8
2012/8/23 11:05,3.9,6,3.9,6,4.1,7
2012/8/23 11:06,3.7,6,3.9,6,4.7,6
2012/8/23 11:07,2.9,6,3.5,6,3.5,6
2012/8/23 11:08,3.2,6,3.2,6,5.1,6
2012/8/23 11:09,3.3,6,3.3,6,4.7,5
2012/8/23 11:10,3.1,6,3.3,6,3.8,4
2012/8/23 11:11,2.8,6,3,6,3.5,8
2012/8/23 11:12,2.7,6,2.8,6,4.1,8
2012/8/23 11:13,2.6,7,2.6,6,3.6,7
2012/8/23 11:14,2.4,7,2.6,6,2.2,9
2012/8/23 11:15,2.4,6,2.4,6,4.2,5
2012/8/23 11:16,2.3,6,2.5,6,4.7,4
2012/8/23 11:17,2.3,6,2.3,6,3.7,7
2012/8/23 11:18,2.2,6,2.2,6,5.8,8
2012/8/23 11:19,2.3,7,2.3,6,7,6
2012/8/23 11:20,2.4,7,2.4,6,5.5,6
2012/8/23 11:21,2.5,7,2.5,6,5.7,8
2012/8/23 11:22,2.7,6,2.7,7,5.5,6
2012/8/23 11:23,2.7,6,2.8,6,5.5,7
2012/8/23 11:24,2.9,6,2.9,6,3.7,5
2012/8/23 11:32,4.8,6,4.8,6,5.1,6
2012/8/23 11:33,4,6,4.8,6,5.6,6
2012/8/23 11:34,3.6,7,4,6,5.5,8
2012/8/23 11:35,3.5,7,3.5,6,5.7,8
2012/8/23 11:36,3.3,7,3.5,6,5,8
2012/8/23 11:37,3.1,7,3.3,6,4.3,8
2012/8/23 11:38,3,8,3.1,6,5.2,9
2012/8/23 11:39,3.1,8,3.1,6,7.8,8
2012/8/23 11:40,3.3,8,3.3,6,6.8,8
2012/8/23 11:41,3.3,8,3.4,6,5.2,8
2012/8/23 11:42,3.2,8,3.4,6,3.9,7
2012/8/23 11:43,3.2,8,3.2,6,5.4,9
2012/8/23 11:44,3.1,8,3.2,7,5.1,9
2012/8/23 11:45,3.2,8,3.2,7,5.5,8
2012/8/23 11:46,3.1,8,3.2,8,5.1,8
2012/8/23 11:47,3.1,8,3.1,8,3.1,7
2012/8/23 11:48,3.2,8,3.2,8,5.2,6
2012/8/23 11:49,3,8,3.2,8,3.7,7
2012/8/23 11:50,2.7,8,3,8,3.7,6
2012/8/23 11:51,2.6,7,2.7,8,3.6,6
2012/8/23 11:52,2.6,7,2.6,8,2.4,6
2012/8/23 11:53,2.5,7,2.6,8,3.3,4
2012/8/23 11:54,2.5,7,2.5,8,4.8,5
2012/8/23 11:55,2.4,6,2.5,8,5.4,6
2012/8/23 11:56,2.5,6,2.5,8,5.7,6
2012/8/23 11:57,2.6,6,2.6,8,4.1,5
2012/8/23 11:58,2.5,6,2.6,8,3.8,6
2012/8/23 13:35,7.1,8,7.1,8,7.1,8
2012/8/23 13:36,6,8,7.1,8,8.7,8
2012/8/23 13:37,4.5,8,5.9,8,5.7,8
2012/8/23 13:38,3.7,9,4.3,8,4.4,10
2012/8/23 13:39,3.4,8,3.7,8,5.2,9
2012/8/23 13:40,3.7,8,3.7,8,8.1,8
2012/8/23 13:41,3.9,8,3.9,8,7.1,8
2012/8/23 13:42,4,8,4,8,7.5,7
2012/8/23 13:43,3.9,8,4,8,4.8,8
2012/8/23 13:44,3.8,8,3.9,8,5,8
2012/8/23 13:45,3.5,8,3.8,8,3.6,8
2012/8/23 13:46,3.1,8,3.4,8,3.7,9
2012/8/23 13:47,3.1,8,3.1,8,6.3,8
2012/8/23 13:48,3,8,3.1,8,2.9,8
2012/8/23 13:49,3,8,3,8,4.5,7
2012/8/23 13:50,2.7,8,2.9,8,3.8,9
2012/8/23 13:51,2.4,8,2.6,8,3.8,7
2012/8/23 13:52,2.1,8,2.3,8,4.2,7
2012/8/23 13:53,2.1,8,2.2,8,5.5,8
2012/8/23 13:54,2.2,8,2.2,8,5.1,8
2012/8/23 13:55,2.4,8,2.4,8,5.5,8
2012/8/23 13:56,2.5,8,2.5,8,5.4,8
2012/8/23 13:57,2.4,8,2.5,8,3.3,9
2012/8/23 13:58,2.5,8,2.5,8,3.9,8
2012/8/23 13:59,2.7,8,2.7,8,6.5,7
2012/8/23 14:00,2.9,8,2.9,8,7.8,7
2012/8/23 14:01,2.9,8,2.9,8,5.8,6
2012/8/23 14:02,3.3,8,3.3,8,9.4,8
2012/8/23 14:03,3.4,8,3.4,8,7.4,7
2012/8/23 14:04,3.4,8,3.4,8,6,8
2012/8/23 14:05,3.4,8,3.4,8,5.6,7
2012/8/23 14:06,3.4,7,3.4,8,6.3,9
2012/8/23 14:07,3.6,7,3.6,7,5.6,8
2012/8/23 14:08,3.7,7,3.7,7,5.4,7
2012/8/23 14:09,3.8,7,3.8,7,6.4,6
2012/8/23 14:10,3.7,7,3.8,7,6.5,8
2012/8/23 14:11,3.8,7,3.8,7,5.5,6
2012/8/23 14:12,3.6,7,3.8,7,4.8,6
2012/8/23 14:13,3.5,7,3.6,7,7.6,9
2012/8/23 14:14,3.6,7,3.6,7,8.3,8
2012/8/23 16:54,1.8,6,1.8,6,2,6
2012/8/23 16:55,1.9,6,2.4,6,3,6
2012/8/23 16:56,1.5,6,1.7,6,2.2,7
2012/8/23 16:57,1.7,6,1.7,6,4.1,8
2012/8/23 16:58,1.8,6,1.8,6,2.7,6
2012/8/23 16:59,1.6,7,1.8,6,2.4,7
2012/8/23 17:00,1.7,7,1.7,6,3.5,5
2012/8/23 17:01,1.6,7,1.7,6,2.9,7
2012/8/23 17:02,1.6,7,1.6,6,2.2,8
2012/8/23 17:03,1.8,7,1.8,6,4.4,6
2012/8/23 17:04,1.8,7,1.8,6,3.2,6
2012/8/23 17:05,1.9,7,1.9,7,5.1,9
2012/8/23 17:06,2,7,2,7,5.2,8
2012/8/23 17:07,2.1,7,2.1,7,4.3,8
2012/8/23 17:08,2.1,8,2.1,7,4.7,8
2012/8/23 17:09,2.1,8,2.1,7,3.3,7
2012/8/23 17:10,2.1,8,2.2,8,2.5,8
2012/8/23 17:11,2,8,2.1,8,1.8,9
2012/8/23 17:12,2.1,8,2.1,8,4.9,8
2012/8/23 17:13,2.1,8,2.2,8,4.9,8
2012/8/23 17:14,2.1,8,2.1,8,3.3,8
2012/8/23 17:15,2,8,2,8,3.2,5
2012/8/23 17:16,2,8,2.1,8,5.4,7
2012/8/23 17:17,2.2,8,2.2,8,5.4,7
2012/8/23 17:46,2,7,2,7,2.4,7
2012/8/23 17:47,1.5,7,2,7,2.4,7
2012/8/23 17:48,1.5,7,1.6,7,2.5,8
2012/8/23 17:49,1.8,8,1.8,7,3.1,7
2012/8/23 17:50,1.8,8,1.8,7,2.6,9
2012/8/23 17:51,1.7,8,1.8,7,2.4,7
2012/8/23 17:52,1.6,8,1.7,7,2.5,7
2012/8/23 17:53,1.7,8,1.7,7,3.1,7
2012/8/23 17:54,1.6,8,1.7,7,2.2,7
2012/8/23 17:55,1.6,8,1.6,7,2.2,9
2012/8/23 17:56,1.6,8,1.6,7,1.9,7
2012/8/23 17:57,1.6,8,1.6,8,2.2,6
2012/8/23 17:58,1.5,7,1.6,8,1.3,6
2012/8/23 17:59,1.4,7,1.5,8,2.2,7
2012/8/23 18:00,1.5,7,1.5,8,3.2,5
2012/8/23 18:01,1.7,7,1.7,8,5.1,6
2012/8/23 18:02,1.8,6,1.8,6,5,5
2012/8/23 18:03,1.8,6,1.8,6,2.4,4
2012/8/23 18:04,1.9,6,1.9,6,2.6,6
2012/8/23 18:05,2,6,2,6,3.1,6
2012/8/23 18:06,2,6,2,6,2.5,5
2012/8/23 18:07,2,5,2,6,2.2,3
2012/8/23 18:08,2.1,5,2.1,5,2.5,4
2012/8/23 18:09,2.1,5,2.1,5,2.1,5
2012/8/23 18:10,2.1,5,2.1,5,4.5,5
2012/8/23 18:11,2.1,5,2.1,5,3.9,5
2012/8/23 18:12,2.1,5,2.1,5,3.9,6
2012/8/23 18:13,2.1,5,2.1,5,3.5,6
2012/8/23 18:14,2.2,5,2.2,5,3.8,5
2012/8/23 18:15,2.1,5,2.2,5,2.2,7
2012/8/23 18:16,2.1,5,2.1,5,2.9,7
2012/8/23 18:17,2.2,6,2.2,5,3.7,7
2012/8/23 18:18,2.2,6,2.2,5,2.4,7
2012/8/23 18:58,1.6,3,1.6,3,1.9,16
2012/8/23 18:59,1.6,2,1.6,3,2.4,2
2012/8/23 19:00,1.9,2,1.9,2,2.7,3
2012/8/23 19:01,1.8,2,1.8,2,2.4,3
2012/8/23 19:02,1.8,2,1.8,2,2.9,3
2012/8/23 19:03,1.8,2,1.8,2,3.1,3
2012/8/23 19:04,1.9,2,1.9,2,2.6,2
2012/8/23 19:05,1.8,2,1.8,2,2.6,3
2012/8/23 19:06,1.8,2,1.8,2,2.4,2
2012/8/23 19:07,1.7,2,1.8,2,3.3,3
2012/8/23 19:08,1.8,2,1.8,2,3.7,2
2012/8/23 19:09,1.8,2,1.8,2,3.6,2
2012/8/23 19:10,1.9,2,1.9,2,3.7,3
2012/8/23 19:11,2,2,2,2,4.1,2
2012/8/23 19:12,2,2,2,2,3.5,2
2012/8/23 19:13,2,2,2.1,2,3,3
2012/8/23 19:14,2.1,2,2.1,2,4.1,3
2012/8/23 19:15,2.1,2,2.1,2,2.9,3
2012/8/23 19:16,2.1,2,2.1,2,3.8,2
2012/8/23 19:17,2.2,2,2.2,2,3.8,3
2012/8/23 19:18,2.3,2,2.3,2,4.1,3
2012/8/23 19:19,2.3,2,2.3,2,3.7,2
2012/8/23 19:20,2.2,2,2.3,2,2.7,3
2012/8/23 19:21,2.1,2,2.2,2,2.7,2
2012/8/23 19:22,2.1,2,2.1,2,3.2,2
2012/8/23 19:23,2.1,2,2.1,2,3.2,3
2012/8/23 19:24,2,2,2.1,2,3.1,2
2012/8/23 20:02,1.4,2,1.4,2,2.2,1
2012/8/23 20:03,2.4,2,2.6,2,3.2,2
2012/8/23 20:04,2.6,2,2.6,2,3.9,3
2012/8/23 20:05,2.7,3,2.7,3,4.4,3
2012/8/23 20:06,2.7,3,2.7,3,3.3,3
2012/8/23 21:27,3.1,1,3.1,1,3.8,3
2012/8/23 21:28,2.8,2,3.1,1,3.8,3
2012/8/23 21:29,2.7,2,3,1,3.9,4
2012/8/23 21:30,2.8,2,2.8,1,4.3,4
2012/8/23 21:31,3,3,3,1,4.5,3
2012/8/23 21:32,2.8,2,3,1,3.9,3
2012/8/23 21:33,2.9,2,2.9,1,5.1,2
2012/8/23 21:34,2.8,2,2.9,1,4.1,2
2012/8/23 21:35,2.7,2,2.8,1,3.1,1
2012/8/23 21:36,2.8,2,2.8,1,5,3
2012/8/23 21:37,2.8,2,2.8,1,4.8,4
2012/8/23 21:38,2.7,2,2.8,3,3.9,3
2012/8/23 21:39,2.6,2,2.7,3,3.1,3
2012/8/23 21:40,2.6,2,2.6,3,3.5,2
2012/8/23 21:41,2.6,2,2.6,3,4.1,3
2012/8/23 21:42,2.7,3,2.7,2,3.6,3
2012/8/23 21:43,2.6,3,2.7,2,4.8,3
2012/8/23 21:44,2.6,3,2.6,2,3.6,3
2012/8/23 21:45,2.6,3,2.6,2,4.8,2
2012/8/23 21:46,2.6,3,2.7,2,3.7,3
2012/8/23 21:47,2.7,3,2.7,2,5.1,3
2012/8/23 21:48,2.7,3,2.7,2,4.4,1
2012/8/23 21:49,2.8,3,2.8,3,4.4,3
2012/8/23 21:50,2.9,3,2.9,3,4.9,3
2012/8/23 21:51,2.8,3,2.9,3,5.4,2
2012/8/23 21:52,3,3,3,3,6.1,3
2012/8/23 21:53,3,3,3.1,3,4.9,3
2012/8/23 21:54,3.1,3,3.1,3,3.8,3
2012/8/23 21:55,3.1,3,3.1,3,3.8,2
2012/8/23 21:56,3,3,3,3,4.5,3
2012/8/23 21:57,3,3,3,3,5,3
2012/8/23 21:58,3,2,3,3,5.4,2
2012/8/23 21:59,3.1,2,3.1,3,6.1,3
2012/8/23 22:00,3.1,2,3.1,3,3.9,4
2012/8/23 22:01,3.1,2,3.2,3,3.7,3
2012/8/23 22:02,2.9,2,3.1,3,3.5,3
2012/8/23 22:03,2.8,2,2.8,3,3.3,4
2012/8/23 22:04,2.9,3,2.9,3,4.4,4
2012/8/23 22:05,2.9,3,2.9,3,3.9,3
2012/8/23 22:06,2.9,2,3,3,4.4,3
2012/8/23 22:07,2.9,2,2.9,3,4.2,3
2012/8/23 22:08,2.9,3,2.9,3,3.9,3
2012/8/23 22:09,2.8,3,2.9,3,3.5,3
2012/8/23 22:10,2.7,2,2.8,3,4.2,2
2012/8/23 22:11,2.8,2,2.8,3,4.5,3
2012/8/23 22:12,2.8,2,2.8,3,3.7,5
2012/8/23 22:13,2.7,2,2.8,3,3.9,2
2012/8/23 22:14,2.7,2,2.8,3,4.4,2
2012/8/23 23:35,2.1,3,2.1,3,2.2,4
2012/8/23 23:36,3.4,3,3.7,3,4.8,3
2012/8/23 23:37,3.1,3,3.4,3,4.2,3
2012/8/23 23:38,3.1,3,3.1,3,4.1,3
2012/8/23 23:39,3.2,3,3.2,3,4.1,3
2012/8/23 23:40,3,3,3.2,3,3.6,3
2012/8/23 23:41,3,3,3,3,3.3,3
2012/8/23 23:42,2.9,3,3,3,3.7,4
2012/8/23 23:43,2.8,3,2.9,3,4.4,4
2012/8/23 23:44,2.8,3,2.9,3,3.9,3
2012/8/23 23:45,2.9,3,2.9,3,4.8,3
2012/8/23 23:46,2.8,3,2.9,3,4.3,3
2012/8/23 23:47,2.8,3,2.9,3,4.4,2
2012/8/23 23:48,2.9,3,2.9,3,4.5,2
2012/8/23 23:49,2.9,3,2.9,3,4.5,4
2012/8/23 23:50,3,3,3,3,4.7,2
2012/8/23 23:51,3,3,3,3,3.9,2
2012/8/23 23:52,3,3,3.1,3,4.7,3
2012/8/23 23:53,3.1,2,3.1,3,4.3,3
2012/8/23 23:54,3.1,2,3.1,3,5,4
2012/8/23 23:55,3.1,2,3.1,3,4.7,3
2012/8/23 23:56,3.1,3,3.1,3,3.8,3
2012/8/23 23:57,3,3,3.1,3,3.6,2
